Location: Newark
(48.4472°N, 1.4892°E)
Time: 01:58:29
(UTC+00:00)

Altair - Visible Passes

Search period start: 19 November 2019 00:00
Search period end: 29 November 2019 00:00
Orbit: 1502 x 1682 km, 47.2° (Epoch: 17 November)

Date Brightness Start Highest point End Pass type
(mag) Time Alt. Az. Time Alt. Az. Time Alt. Az.
19 Nov 8.7 02:10:24 29° ESE 02:10:24 29° ESE 02:15:28 10° ENE visible
19 Nov 7.4 04:08:26 49° SW 04:11:09 71° SSE 04:20:23 10° E visible
19 Nov 7.5 06:06:29 10° W 06:15:42 83° S 06:25:10 10° E visible
20 Nov 9.0 01:46:47 22° E 01:46:47 22° E 01:50:13 10° E visible
20 Nov 7.4 03:44:48 63° SSW 03:46:02 69° SSE 03:55:13 10° E visible
20 Nov 7.5 05:42:51 16° W 05:50:33 84° S 05:59:58 10° E visible
21 Nov 9.4 01:23:07 16° E 01:23:07 16° E 01:24:59 10° E visible
21 Nov 7.5 03:21:09 66° SSE 03:21:09 66° SSE 03:30:03 10° ENE visible
21 Nov 7.4 05:19:11 24° W 05:25:23 84° S 05:34:47 10° E visible
22 Nov 9.6 00:59:26 11° E 00:59:26 11° E 00:59:43 10° E visible
22 Nov 7.8 02:57:28 56° ESE 02:57:28 56° ESE 03:04:52 10° ENE visible
22 Nov 7.4 04:55:29 34° W 05:00:14 84° S 05:09:36 10° E visible
23 Nov 8.2 02:33:45 43° E 02:33:45 43° E 02:39:42 10° ENE visible
23 Nov 7.3 04:31:47 46° W 04:35:05 84° S 04:44:25 10° E visible
23 Nov 7.7 06:30:30 10° WNW 06:39:35 67° SSW 06:48:53 10° ESE visible
24 Nov 8.6 02:10:02 32° E 02:10:02 32° E 02:14:32 10° ENE visible
24 Nov 7.3 04:08:03 62° WSW 04:09:56 84° S 04:19:14 10° E visible
24 Nov 7.6 06:06:04 13° W 06:14:27 69° SSW 06:23:45 10° ESE visible
25 Nov 9.0 01:46:17 24° E 01:46:17 24° E 01:49:22 10° ENE visible
25 Nov 7.2 03:44:19 80° SW 03:44:46 83° S 03:54:03 10° E visible
25 Nov 7.5 05:42:20 19° W 05:49:19 72° SSW 05:58:38 10° ESE visible
26 Nov 9.4 01:22:33 17° E 01:22:33 17° E 01:24:12 10° ENE visible
26 Nov 7.4 03:20:34 74° ESE 03:20:34 74° ESE 03:28:53 10° E visible
26 Nov 7.5 05:18:35 27° W 05:24:11 74° SSW 05:33:30 10° ESE visible
27 Nov 9.6 00:58:48 11° ENE 00:58:48 11° ENE 00:59:02 10° ENE visible
27 Nov 7.8 02:56:49 56° E 02:56:49 56° E 03:03:43 10° E visible
27 Nov 7.4 04:54:51 37° W 04:59:04 76° SSW 05:08:21 10° ESE visible
28 Nov 8.3 02:33:06 41° E 02:33:06 41° E 02:38:33 10° E visible
28 Nov 7.3 04:31:07 50° W 04:33:55 78° SSW 04:43:12 10° ESE visible
28 Nov 8.1 06:29:26 10° WNW 06:37:54 43° SW 06:46:32 10° SSE visible
